#datetime,building,power
2022-07-25T00:01:00,pkn,4.80
2022-07-25T00:03:00,pkn,10.80
2022-07-25T00:04:00,pkn,4.80
2022-07-25T00:06:00,pkn,10.80
2022-07-25T00:07:00,pkn,4.80
2022-07-25T00:09:00,pkn,10.80
2022-07-25T00:11:00,pkn,4.80
2022-07-25T00:13:00,pkn,1.20
2022-07-25T00:14:00,pkn,1.20
2022-07-25T00:16:00,pkn,1.20
2022-07-25T00:17:00,pkn,1.20
2022-07-25T00:18:00,pkn,1.20
2022-07-25T00:20:00,pkn,1.20
2022-07-25T00:21:00,pkn,1.20
2022-07-25T00:23:00,pkn,1.20
2022-07-25T00:25:00,pkn,1.20
2022-07-25T00:27:00,pkn,2.40
2022-07-25T00:29:00,pkn,1.20
2022-07-25T00:31:00,pkn,6.00
2022-07-25T00:33:00,pkn,10.80
2022-07-25T00:34:00,pkn,3.60
2022-07-25T00:36:00,pkn,10.80
2022-07-25T00:37:00,pkn,4.80
2022-07-25T00:39:00,pkn,8.40
2022-07-25T00:42:00,pkn,2.40
2022-07-25T00:44:00,pkn,1.20
2022-07-25T00:47:00,pkn,2.40
2022-07-25T00:49:00,pkn,1.20
2022-07-25T00:52:00,pkn,2.40
2022-07-25T00:54:00,pkn,1.20
2022-07-25T00:56:00,pkn,1.20
2022-07-25T00:58:00,pkn,1.20
2022-07-25T01:00:00,pkn,1.20
2022-07-25T01:01:00,pkn,1.20
2022-07-25T01:03:00,pkn,1.20
2022-07-25T01:04:00,pkn,1.20
2022-07-25T01:06:00,pkn,1.20
2022-07-25T01:09:00,pkn,1.20
2022-07-25T01:10:00,pkn,1.20
2022-07-25T01:11:00,pkn,3.60
2022-07-25T01:12:00,pkn,3.60
2022-07-25T01:13:00,pkn,1.20
2022-07-25T01:14:00,pkn,8.40
2022-07-25T01:15:00,pkn,6.00
2022-07-25T01:17:00,pkn,9.60
2022-07-25T01:18:00,pkn,4.80
2022-07-25T01:20:00,pkn,7.20
2022-07-25T01:22:00,pkn,1.20
2022-07-25T01:24:00,pkn,1.20
2022-07-25T01:26:00,pkn,1.20
2022-07-25T01:28:00,pkn,1.20
2022-07-25T01:31:00,pkn,1.20
2022-07-25T01:32:00,pkn,1.20
2022-07-25T01:35:00,pkn,1.20
2022-07-25T01:36:00,pkn,1.20
2022-07-25T01:38:00,pkn,1.20
2022-07-25T01:41:00,pkn,1.20
2022-07-25T01:42:00,pkn,1.20
2022-07-25T01:44:00,pkn,1.20
2022-07-25T01:46:00,pkn,1.20
2022-07-25T01:48:00,pkn,1.20
2022-07-25T01:51:00,pkn,1.20
2022-07-25T01:52:00,pkn,1.20
2022-07-25T01:54:00,pkn,1.20
2022-07-25T01:57:00,pkn,1.20
2022-07-25T01:59:00,pkn,1.20
2022-07-25T02:00:00,pkn,1.20
2022-07-25T02:02:00,pkn,1.20
2022-07-25T02:03:00,pkn,1.20
2022-07-25T02:05:00,pkn,1.20
2022-07-25T02:07:00,pkn,1.20
2022-07-25T02:08:00,pkn,1.20
2022-07-25T02:10:00,pkn,1.20
2022-07-25T02:12:00,pkn,1.20
2022-07-25T02:14:00,pkn,4.80
2022-07-25T02:16:00,pkn,8.40
2022-07-25T02:17:00,pkn,6.00
2022-07-25T02:19:00,pkn,9.60
2022-07-25T02:21:00,pkn,8.40
2022-07-25T02:24:00,pkn,1.20
2022-07-25T02:25:00,pkn,1.20
2022-07-25T02:27:00,pkn,1.20
2022-07-25T02:30:00,pkn,1.20
2022-07-25T02:31:00,pkn,1.20
2022-07-25T02:33:00,pkn,1.20
2022-07-25T02:35:00,pkn,1.20
2022-07-25T02:38:00,pkn,1.20
2022-07-25T02:39:00,pkn,1.20
2022-07-25T02:41:00,pkn,1.20
2022-07-25T02:43:00,pkn,1.20
2022-07-25T02:46:00,pkn,1.20
2022-07-25T02:48:00,pkn,1.20
2022-07-25T02:50:00,pkn,1.20
2022-07-25T02:51:00,pkn,1.20
2022-07-25T02:53:00,pkn,1.20
2022-07-25T02:55:00,pkn,1.20
2022-07-25T02:57:00,pkn,1.20
2022-07-25T02:59:00,pkn,1.20
2022-07-25T03:01:00,pkn,1.20
2022-07-25T03:03:00,pkn,1.20
2022-07-25T03:05:00,pkn,1.20
2022-07-25T03:07:00,pkn,1.20
2022-07-25T03:10:00,pkn,1.20
2022-07-25T03:12:00,pkn,1.20
2022-07-25T03:13:00,pkn,1.20
2022-07-25T03:15:00,pkn,1.20
2022-07-25T03:18:00,pkn,2.40
2022-07-25T03:20:00,pkn,1.20
2022-07-25T03:22:00,pkn,1.20
2022-07-25T03:24:00,pkn,1.20
2022-07-25T03:26:00,pkn,1.20
2022-07-25T03:27:00,pkn,1.20
2022-07-25T03:29:00,pkn,1.20
2022-07-25T03:31:00,pkn,1.20
2022-07-25T03:32:00,pkn,1.20
2022-07-25T03:34:00,pkn,1.20
2022-07-25T03:37:00,pkn,1.20
2022-07-25T03:38:00,pkn,1.20
2022-07-25T03:40:00,pkn,1.20
2022-07-25T03:41:00,pkn,1.20
2022-07-25T03:42:00,pkn,2.40
2022-07-25T03:43:00,pkn,1.20
2022-07-25T03:44:00,pkn,8.40
2022-07-25T03:46:00,pkn,9.60
2022-07-25T03:47:00,pkn,3.60
2022-07-25T03:48:00,pkn,1.20
2022-07-25T03:49:00,pkn,4.80
2022-07-25T03:50:00,pkn,1.20
2022-07-25T03:52:00,pkn,1.20
2022-07-25T03:53:00,pkn,1.20
2022-07-25T03:56:00,pkn,1.20
2022-07-25T03:58:00,pkn,1.20
2022-07-25T04:01:00,pkn,1.20
2022-07-25T04:02:00,pkn,1.20
2022-07-25T04:04:00,pkn,1.20
2022-07-25T04:06:00,pkn,1.20
2022-07-25T04:08:00,pkn,1.20
2022-07-25T04:10:00,pkn,1.20
2022-07-25T04:13:00,pkn,1.20
2022-07-25T04:14:00,pkn,1.20
2022-07-25T04:17:00,pkn,1.20
2022-07-25T04:18:00,pkn,1.20
2022-07-25T04:20:00,pkn,1.20
2022-07-25T04:22:00,pkn,1.20
2022-07-25T04:24:00,pkn,1.20
2022-07-25T04:26:00,pkn,1.20
2022-07-25T04:29:00,pkn,1.20
2022-07-25T04:31:00,pkn,1.20
2022-07-25T04:32:00,pkn,1.20
2022-07-25T04:35:00,pkn,1.20
2022-07-25T04:37:00,pkn,1.20
2022-07-25T04:38:00,pkn,1.20
2022-07-25T04:40:00,pkn,1.20
2022-07-25T04:42:00,pkn,1.20
2022-07-25T04:43:00,pkn,1.20
2022-07-25T04:45:00,pkn,1.20
2022-07-25T04:48:00,pkn,1.20
2022-07-25T04:50:00,pkn,1.20
2022-07-25T04:52:00,pkn,2.40
2022-07-25T04:54:00,pkn,1.20
2022-07-25T04:56:00,pkn,1.20
2022-07-25T04:58:00,pkn,1.20
2022-07-25T05:01:00,pkn,1.20
2022-07-25T05:02:00,pkn,1.20
2022-07-25T05:05:00,pkn,1.20
2022-07-25T05:07:00,pkn,1.20
2022-07-25T05:08:00,pkn,1.20
2022-07-25T05:10:00,pkn,1.20
2022-07-25T05:12:00,pkn,1.20
2022-07-25T05:14:00,pkn,1.20
2022-07-25T05:17:00,pkn,1.20
2022-07-25T05:20:00,pkn,1.20
2022-07-25T05:22:00,pkn,1.20
2022-07-25T05:24:00,pkn,1.20
2022-07-25T05:26:00,pkn,1.20
2022-07-25T05:28:00,pkn,1.20
2022-07-25T05:30:00,pkn,1.20
2022-07-25T05:32:00,pkn,1.20
2022-07-25T05:34:00,pkn,1.20
2022-07-25T05:35:00,pkn,1.20
2022-07-25T05:36:00,pkn,1.20
2022-07-25T05:37:00,pkn,1.20
2022-07-25T05:39:00,pkn,1.20
2022-07-25T05:41:00,pkn,1.20
2022-07-25T05:43:00,pkn,2.40
2022-07-25T05:44:00,pkn,3.60
2022-07-25T05:46:00,pkn,9.60
2022-07-25T05:47:00,pkn,3.60
2022-07-25T05:48:00,pkn,6.00
2022-07-25T05:50:00,pkn,9.60
2022-07-25T05:51:00,pkn,3.60
2022-07-25T05:53:00,pkn,3.60
2022-07-25T05:55:00,pkn,1.20
2022-07-25T05:56:00,pkn,1.20
2022-07-25T05:58:00,pkn,1.20
2022-07-25T06:01:00,pkn,1.20
2022-07-25T06:03:00,pkn,1.20
2022-07-25T06:04:00,pkn,1.20
2022-07-25T06:06:00,pkn,1.20
2022-07-25T06:07:00,pkn,1.20
2022-07-25T06:10:00,pkn,1.20
2022-07-25T06:12:00,pkn,2.40
2022-07-25T06:14:00,pkn,1.20
2022-07-25T06:17:00,pkn,1.20
2022-07-25T06:18:00,pkn,1.20
2022-07-25T06:20:00,pkn,1.20
2022-07-25T06:23:00,pkn,1.20
2022-07-25T06:25:00,pkn,1.20
2022-07-25T06:27:00,pkn,1.20
2022-07-25T06:29:00,pkn,1.20
2022-07-25T06:31:00,pkn,1.20
2022-07-25T06:33:00,pkn,1.20
2022-07-25T06:34:00,pkn,1.20
2022-07-25T06:36:00,pkn,1.20
2022-07-25T06:38:00,pkn,1.20
2022-07-25T06:41:00,pkn,1.20
2022-07-25T06:43:00,pkn,1.20
2022-07-25T06:45:00,pkn,2.40
2022-07-25T06:47:00,pkn,1.20
2022-07-25T06:49:00,pkn,1.20
2022-07-25T06:52:00,pkn,1.20
2022-07-25T06:54:00,pkn,1.20
2022-07-25T06:55:00,pkn,1.20
2022-07-25T06:57:00,pkn,1.20
2022-07-25T06:58:00,pkn,4.80
2022-07-25T07:00:00,pkn,9.60
2022-07-25T07:01:00,pkn,3.60
2022-07-25T07:02:00,pkn,1.20
2022-07-25T07:03:00,pkn,8.40
2022-07-25T07:04:00,pkn,4.80
2022-07-25T07:06:00,pkn,9.60
2022-07-25T07:08:00,pkn,8.40
2022-07-25T07:09:00,pkn,6.00
2022-07-25T07:11:00,pkn,8.40
2022-07-25T07:13:00,pkn,7.20
2022-07-25T07:15:00,pkn,1.20
2022-07-25T07:17:00,pkn,1.20
2022-07-25T07:19:00,pkn,2.40
2022-07-25T07:21:00,pkn,1.20
2022-07-25T07:23:00,pkn,1.20
2022-07-25T07:24:00,pkn,1.20
2022-07-25T07:26:00,pkn,1.20
2022-07-25T07:28:00,pkn,1.20
2022-07-25T07:30:00,pkn,7.20
2022-07-25T07:31:00,pkn,6.00
2022-07-25T07:33:00,pkn,8.40
2022-07-25T07:35:00,pkn,9.60
2022-07-25T07:37:00,pkn,10.80
2022-07-25T07:39:00,pkn,8.40
2022-07-25T07:40:00,pkn,6.00
2022-07-25T07:42:00,pkn,2.40
2022-07-25T07:44:00,pkn,1.20
2022-07-25T07:46:00,pkn,2.40
2022-07-25T07:48:00,pkn,1.20
2022-07-25T07:50:00,pkn,1.20
2022-07-25T07:51:00,pkn,1.20
2022-07-25T07:53:00,pkn,1.20
2022-07-25T07:55:00,pkn,1.20
2022-07-25T07:57:00,pkn,1.20
2022-07-25T07:58:00,pkn,1.20
2022-07-25T08:00:00,pkn,1.20
2022-07-25T08:02:00,pkn,1.20
2022-07-25T08:04:00,pkn,1.20
2022-07-25T08:05:00,pkn,1.20
2022-07-25T08:07:00,pkn,9.60
2022-07-25T08:08:00,pkn,3.60
2022-07-25T08:09:00,pkn,6.00
2022-07-25T08:11:00,pkn,8.40
2022-07-25T08:12:00,pkn,4.80
2022-07-25T08:13:00,pkn,4.80
2022-07-25T08:15:00,pkn,1.20
2022-07-25T08:17:00,pkn,1.20
2022-07-25T08:18:00,pkn,1.20
2022-07-25T08:20:00,pkn,1.20
2022-07-25T08:23:00,pkn,1.20
2022-07-25T08:25:00,pkn,1.20
2022-07-25T08:27:00,pkn,2.40
2022-07-25T08:30:00,pkn,1.20
2022-07-25T08:32:00,pkn,1.20
2022-07-25T08:34:00,pkn,1.20
2022-07-25T08:35:00,pkn,1.20
2022-07-25T08:37:00,pkn,1.20
2022-07-25T08:39:00,pkn,1.20
2022-07-25T08:41:00,pkn,1.20
2022-07-25T08:44:00,pkn,1.20
2022-07-25T08:45:00,pkn,8.40
2022-07-25T08:46:00,pkn,4.80
2022-07-25T08:47:00,pkn,3.60
2022-07-25T08:48:00,pkn,1.20
2022-07-25T08:49:00,pkn,8.40
2022-07-25T08:50:00,pkn,4.80
2022-07-25T08:52:00,pkn,3.60
2022-07-25T08:54:00,pkn,1.20
2022-07-25T08:56:00,pkn,1.20
2022-07-25T08:59:00,pkn,1.20
2022-07-25T09:01:00,pkn,1.20
2022-07-25T09:02:00,pkn,1.20
2022-07-25T09:04:00,pkn,1.20
2022-07-25T09:06:00,pkn,1.20
2022-07-25T09:09:00,pkn,1.20
2022-07-25T09:11:00,pkn,1.20
2022-07-25T09:12:00,pkn,1.20
2022-07-25T09:15:00,pkn,1.20
2022-07-25T09:17:00,pkn,1.20
2022-07-25T09:18:00,pkn,1.20
2022-07-25T09:20:00,pkn,1.20
2022-07-25T09:24:00,pkn,1.20
2022-07-25T09:25:00,pkn,1.20
2022-07-25T09:27:00,pkn,1.20
2022-07-25T09:30:00,pkn,1.20
2022-07-25T09:32:00,pkn,1.20
2022-07-25T09:34:00,pkn,1.20
2022-07-25T09:35:00,pkn,2.40
2022-07-25T09:36:00,pkn,3.60
2022-07-25T09:38:00,pkn,9.60
2022-07-25T09:39:00,pkn,6.00
2022-07-25T09:41:00,pkn,7.20
2022-07-25T09:42:00,pkn,6.00
2022-07-25T09:43:00,pkn,2.40
2022-07-25T09:45:00,pkn,1.20
2022-07-25T09:47:00,pkn,1.20
2022-07-25T09:49:00,pkn,1.20
2022-07-25T09:51:00,pkn,1.20
2022-07-25T09:53:00,pkn,1.20
2022-07-25T09:57:00,pkn,1.20
2022-07-25T09:58:00,pkn,1.20
2022-07-25T10:01:00,pkn,1.20
2022-07-25T10:04:00,pkn,1.20
2022-07-25T10:05:00,pkn,1.20
2022-07-25T10:07:00,pkn,1.20
2022-07-25T10:10:00,pkn,1.20
2022-07-25T10:12:00,pkn,1.20
2022-07-25T10:14:00,pkn,1.20
2022-07-25T10:18:00,pkn,1.20
2022-07-25T10:20:00,pkn,1.20
2022-07-25T10:22:00,pkn,1.20
2022-07-25T10:23:00,pkn,1.20
2022-07-25T10:25:00,pkn,1.20
2022-07-25T10:27:00,pkn,1.20
2022-07-25T10:30:00,pkn,1.20
2022-07-25T10:32:00,pkn,1.20
2022-07-25T10:34:00,pkn,2.40
2022-07-25T10:36:00,pkn,1.20
2022-07-25T10:38:00,pkn,1.20
2022-07-25T10:40:00,pkn,1.20
2022-07-25T10:43:00,pkn,1.20
2022-07-25T10:45:00,pkn,1.20
2022-07-25T10:48:00,pkn,1.20
2022-07-25T10:50:00,pkn,1.20
2022-07-25T10:52:00,pkn,1.20
2022-07-25T10:54:00,pkn,1.20
2022-07-25T10:58:00,pkn,4.80
2022-07-25T10:59:00,pkn,4.80
2022-07-25T11:01:00,pkn,9.60
2022-07-25T11:03:00,pkn,8.40
2022-07-25T11:05:00,pkn,6.00
2022-07-25T11:06:00,pkn,1.20
2022-07-25T11:09:00,pkn,1.20
2022-07-25T11:11:00,pkn,1.20
2022-07-25T11:13:00,pkn,1.20
2022-07-25T11:15:00,pkn,1.20
2022-07-25T11:19:00,pkn,1.20
2022-07-25T11:21:00,pkn,1.20
2022-07-25T11:22:00,pkn,1.20
2022-07-25T11:25:00,pkn,1.20
2022-07-25T11:27:00,pkn,1.20
2022-07-25T11:30:00,pkn,1.20
2022-07-25T11:32:00,pkn,1.20
2022-07-25T11:34:00,pkn,1.20
2022-07-25T11:36:00,pkn,1.20
2022-07-25T11:40:00,pkn,1.20
2022-07-25T11:41:00,pkn,1.20
2022-07-25T11:43:00,pkn,1.20
2022-07-25T11:45:00,pkn,1.20
2022-07-25T11:47:00,pkn,1.20
2022-07-25T11:49:00,pkn,1.20
2022-07-25T11:52:00,pkn,2.40
2022-07-25T11:54:00,pkn,1.20
2022-07-25T11:56:00,pkn,1.20
2022-07-25T11:58:00,pkn,1.20
2022-07-25T12:00:00,pkn,1.20
2022-07-25T12:04:00,pkn,1.20
2022-07-25T12:05:00,pkn,1.20
2022-07-25T12:07:00,pkn,1.20
2022-07-25T12:11:00,pkn,1.20
2022-07-25T12:12:00,pkn,1.20
2022-07-25T12:16:00,pkn,1.20
2022-07-25T12:18:00,pkn,1.20
2022-07-25T12:20:00,pkn,1.20
2022-07-25T12:22:00,pkn,1.20
2022-07-25T12:24:00,pkn,1.20
2022-07-25T12:26:00,pkn,1.20
2022-07-25T12:28:00,pkn,1.20
2022-07-25T12:32:00,pkn,1.20
2022-07-25T12:34:00,pkn,1.20
2022-07-25T12:36:00,pkn,1.20
2022-07-25T12:38:00,pkn,1.20
2022-07-25T12:40:00,pkn,9.60
2022-07-25T12:41:00,pkn,3.60
2022-07-25T12:43:00,pkn,9.60
2022-07-25T12:44:00,pkn,3.60
2022-07-25T12:45:00,pkn,1.20
2022-07-25T12:46:00,pkn,4.80
2022-07-25T12:47:00,pkn,1.20
2022-07-25T12:50:00,pkn,1.20
2022-07-25T12:52:00,pkn,1.20
2022-07-25T12:54:00,pkn,1.20
2022-07-25T12:57:00,pkn,1.20
2022-07-25T12:59:00,pkn,1.20
2022-07-25T13:01:00,pkn,1.20
2022-07-25T13:02:00,pkn,1.20
2022-07-25T13:04:00,pkn,1.20
2022-07-25T13:06:00,pkn,1.20
2022-07-25T13:08:00,pkn,1.20
2022-07-25T13:10:00,pkn,1.20
2022-07-25T13:12:00,pkn,1.20
2022-07-25T13:15:00,pkn,1.20
2022-07-25T13:16:00,pkn,1.20
2022-07-25T13:18:00,pkn,1.20
2022-07-25T13:20:00,pkn,1.20
2022-07-25T13:22:00,pkn,1.20
2022-07-25T13:24:00,pkn,1.20
2022-07-25T13:28:00,pkn,1.20
2022-07-25T13:30:00,pkn,1.20
2022-07-25T13:31:00,pkn,1.20
2022-07-25T13:33:00,pkn,1.20
2022-07-25T13:36:00,pkn,1.20
2022-07-25T13:39:00,pkn,1.20
2022-07-25T13:41:00,pkn,1.20
2022-07-25T13:43:00,pkn,1.20
2022-07-25T13:46:00,pkn,1.20
2022-07-25T13:48:00,pkn,1.20
2022-07-25T13:50:00,pkn,1.20
2022-07-25T13:53:00,pkn,1.20
2022-07-25T13:55:00,pkn,1.20
2022-07-25T13:56:00,pkn,1.20
2022-07-25T13:59:00,pkn,1.20
2022-07-25T14:01:00,pkn,2.40
2022-07-25T14:04:00,pkn,1.20
2022-07-25T14:05:00,pkn,1.20
2022-07-25T14:07:00,pkn,1.20
2022-07-25T14:09:00,pkn,1.20
2022-07-25T14:10:00,pkn,1.20
2022-07-25T14:12:00,pkn,1.20
2022-07-25T14:14:00,pkn,1.20
2022-07-25T14:16:00,pkn,1.20
2022-07-25T14:18:00,pkn,2.40
2022-07-25T14:20:00,pkn,1.20
2022-07-25T14:22:00,pkn,1.20
2022-07-25T14:24:00,pkn,2.40
2022-07-25T14:26:00,pkn,1.20
2022-07-25T14:28:00,pkn,1.20
2022-07-25T14:29:00,pkn,1.20
2022-07-25T14:31:00,pkn,1.20
2022-07-25T14:32:00,pkn,1.20
2022-07-25T14:33:00,pkn,4.80
2022-07-25T14:35:00,pkn,8.40
2022-07-25T14:37:00,pkn,9.60
2022-07-25T14:39:00,pkn,9.60
2022-07-25T14:40:00,pkn,2.40
2022-07-25T14:42:00,pkn,1.20
2022-07-25T14:44:00,pkn,1.20
2022-07-25T14:46:00,pkn,2.40
2022-07-25T14:48:00,pkn,3.60
2022-07-25T14:49:00,pkn,1.20
2022-07-25T14:51:00,pkn,1.20
2022-07-25T14:52:00,pkn,1.20
2022-07-25T14:54:00,pkn,1.20
2022-07-25T14:57:00,pkn,1.20
2022-07-25T14:58:00,pkn,1.20
2022-07-25T15:01:00,pkn,1.20
2022-07-25T15:03:00,pkn,1.20
2022-07-25T15:05:00,pkn,1.20
2022-07-25T15:07:00,pkn,1.20
2022-07-25T15:09:00,pkn,1.20
2022-07-25T15:10:00,pkn,1.20
2022-07-25T15:12:00,pkn,1.20
2022-07-25T15:15:00,pkn,1.20
2022-07-25T15:16:00,pkn,1.20
2022-07-25T15:18:00,pkn,1.20
2022-07-25T15:20:00,pkn,1.20
2022-07-25T15:22:00,pkn,1.20
2022-07-25T15:25:00,pkn,1.20
2022-07-25T15:26:00,pkn,1.20
2022-07-25T15:28:00,pkn,1.20
2022-07-25T15:31:00,pkn,2.40
2022-07-25T15:33:00,pkn,1.20
2022-07-25T15:36:00,pkn,2.40
2022-07-25T15:37:00,pkn,2.40
2022-07-25T15:39:00,pkn,3.60
2022-07-25T15:40:00,pkn,1.20
2022-07-25T15:42:00,pkn,3.60
2022-07-25T15:43:00,pkn,2.40
2022-07-25T15:45:00,pkn,9.60
2022-07-25T15:47:00,pkn,10.80
2022-07-25T15:48:00,pkn,3.60
2022-07-25T15:49:00,pkn,3.60
2022-07-25T15:50:00,pkn,6.00
2022-07-25T15:52:00,pkn,7.20
2022-07-25T15:55:00,pkn,1.20
2022-07-25T15:57:00,pkn,1.20
2022-07-25T15:59:00,pkn,1.20
2022-07-25T16:01:00,pkn,1.20
2022-07-25T16:02:00,pkn,1.20
2022-07-25T16:04:00,pkn,1.20
2022-07-25T16:07:00,pkn,1.20
2022-07-25T16:09:00,pkn,1.20
2022-07-25T16:11:00,pkn,6.00
2022-07-25T16:12:00,pkn,6.00
2022-07-25T16:14:00,pkn,9.60
2022-07-25T16:16:00,pkn,8.40
2022-07-25T16:17:00,pkn,4.80
2022-07-25T16:18:00,pkn,1.20
2022-07-25T16:19:00,pkn,3.60
2022-07-25T16:20:00,pkn,1.20
2022-07-25T16:22:00,pkn,1.20
2022-07-25T16:25:00,pkn,1.20
2022-07-25T16:27:00,pkn,1.20
2022-07-25T16:29:00,pkn,1.20
2022-07-25T16:31:00,pkn,1.20
2022-07-25T16:33:00,pkn,1.20
2022-07-25T16:34:00,pkn,1.20
2022-07-25T16:36:00,pkn,1.20
2022-07-25T16:37:00,pkn,1.20
2022-07-25T16:39:00,pkn,1.20
2022-07-25T16:41:00,pkn,1.20
2022-07-25T16:42:00,pkn,1.20
2022-07-25T16:44:00,pkn,1.20
2022-07-25T16:45:00,pkn,1.20
2022-07-25T16:47:00,pkn,1.20
2022-07-25T16:50:00,pkn,2.40
2022-07-25T16:53:00,pkn,1.20
2022-07-25T16:54:00,pkn,1.20
2022-07-25T16:56:00,pkn,1.20
2022-07-25T16:58:00,pkn,1.20
2022-07-25T17:00:00,pkn,1.20
2022-07-25T17:02:00,pkn,1.20
2022-07-25T17:04:00,pkn,6.00
2022-07-25T17:05:00,pkn,3.60
2022-07-25T17:06:00,pkn,6.00
2022-07-25T17:08:00,pkn,9.60
2022-07-25T17:10:00,pkn,7.20
2022-07-25T17:11:00,pkn,2.40
2022-07-25T17:12:00,pkn,1.20
2022-07-25T17:14:00,pkn,1.20
2022-07-25T17:17:00,pkn,1.20
2022-07-25T17:19:00,pkn,1.20
2022-07-25T17:21:00,pkn,1.20
2022-07-25T17:22:00,pkn,1.20
2022-07-25T17:24:00,pkn,1.20
2022-07-25T17:26:00,pkn,1.20
2022-07-25T17:28:00,pkn,1.20
2022-07-25T17:30:00,pkn,1.20
2022-07-25T17:32:00,pkn,1.20
2022-07-25T17:34:00,pkn,1.20
2022-07-25T17:36:00,pkn,1.20
2022-07-25T17:38:00,pkn,1.20
2022-07-25T17:40:00,pkn,1.20
2022-07-25T17:41:00,pkn,1.20
2022-07-25T17:43:00,pkn,1.20
2022-07-25T17:45:00,pkn,1.20
2022-07-25T17:49:00,pkn,1.20
2022-07-25T17:50:00,pkn,1.20
2022-07-25T17:52:00,pkn,1.20
2022-07-25T17:54:00,pkn,1.20
2022-07-25T17:56:00,pkn,1.20
2022-07-25T17:57:00,pkn,1.20
2022-07-25T17:59:00,pkn,1.20
2022-07-25T18:01:00,pkn,1.20
2022-07-25T18:03:00,pkn,1.20
2022-07-25T18:04:00,pkn,1.20
2022-07-25T18:06:00,pkn,1.20
2022-07-25T18:08:00,pkn,1.20
2022-07-25T18:09:00,pkn,1.20
2022-07-25T18:11:00,pkn,1.20
2022-07-25T18:12:00,pkn,1.20
2022-07-25T18:14:00,pkn,1.20
2022-07-25T18:16:00,pkn,1.20
2022-07-25T18:19:00,pkn,1.20
2022-07-25T18:21:00,pkn,1.20
2022-07-25T18:22:00,pkn,1.20
2022-07-25T18:24:00,pkn,1.20
2022-07-25T18:26:00,pkn,1.20
2022-07-25T18:29:00,pkn,9.60
2022-07-25T18:31:00,pkn,8.40
2022-07-25T18:32:00,pkn,6.00
2022-07-25T18:34:00,pkn,9.60
2022-07-25T18:35:00,pkn,3.60
2022-07-25T18:37:00,pkn,2.40
2022-07-25T18:38:00,pkn,1.20
2022-07-25T18:40:00,pkn,1.20
2022-07-25T18:41:00,pkn,1.20
2022-07-25T18:43:00,pkn,1.20
2022-07-25T18:45:00,pkn,1.20
2022-07-25T18:47:00,pkn,1.20
2022-07-25T18:50:00,pkn,1.20
2022-07-25T18:52:00,pkn,1.20
2022-07-25T18:54:00,pkn,1.20
2022-07-25T18:56:00,pkn,1.20
2022-07-25T18:58:00,pkn,2.40
2022-07-25T19:00:00,pkn,1.20
2022-07-25T19:03:00,pkn,1.20
2022-07-25T19:05:00,pkn,1.20
2022-07-25T19:07:00,pkn,1.20
2022-07-25T19:09:00,pkn,1.20
2022-07-25T19:10:00,pkn,1.20
2022-07-25T19:12:00,pkn,1.20
2022-07-25T19:15:00,pkn,2.40
2022-07-25T19:17:00,pkn,1.20
2022-07-25T19:20:00,pkn,2.40
2022-07-25T19:22:00,pkn,1.20
2022-07-25T19:24:00,pkn,1.20
2022-07-25T19:25:00,pkn,1.20
2022-07-25T19:28:00,pkn,1.20
2022-07-25T19:29:00,pkn,1.20
2022-07-25T19:30:00,pkn,1.20
2022-07-25T19:32:00,pkn,1.20
2022-07-25T19:34:00,pkn,1.20
2022-07-25T19:36:00,pkn,1.20
2022-07-25T19:38:00,pkn,1.20
2022-07-25T19:40:00,pkn,1.20
2022-07-25T19:42:00,pkn,1.20
2022-07-25T19:44:00,pkn,1.20
2022-07-25T19:45:00,pkn,1.20
2022-07-25T19:48:00,pkn,1.20
2022-07-25T19:49:00,pkn,1.20
2022-07-25T19:51:00,pkn,1.20
2022-07-25T19:53:00,pkn,1.20
2022-07-25T19:55:00,pkn,1.20
2022-07-25T19:57:00,pkn,1.20
2022-07-25T20:00:00,pkn,1.20
2022-07-25T20:02:00,pkn,1.20
2022-07-25T20:03:00,pkn,1.20
2022-07-25T20:05:00,pkn,1.20
2022-07-25T20:07:00,pkn,1.20
2022-07-25T20:09:00,pkn,1.20
2022-07-25T20:11:00,pkn,1.20
2022-07-25T20:13:00,pkn,1.20
2022-07-25T20:15:00,pkn,1.20
2022-07-25T20:18:00,pkn,1.20
2022-07-25T20:20:00,pkn,1.20
2022-07-25T20:22:00,pkn,1.20
2022-07-25T20:24:00,pkn,1.20
2022-07-25T20:26:00,pkn,1.20
2022-07-25T20:29:00,pkn,1.20
2022-07-25T20:30:00,pkn,1.20
2022-07-25T20:32:00,pkn,4.80
2022-07-25T20:34:00,pkn,8.40
2022-07-25T20:35:00,pkn,4.80
2022-07-25T20:36:00,pkn,4.80
2022-07-25T20:38:00,pkn,10.80
2022-07-25T20:39:00,pkn,1.20
2022-07-25T20:41:00,pkn,1.20
2022-07-25T20:43:00,pkn,2.40
2022-07-25T20:44:00,pkn,1.20
2022-07-25T20:46:00,pkn,2.40
2022-07-25T20:48:00,pkn,1.20
2022-07-25T20:49:00,pkn,1.20
2022-07-25T20:51:00,pkn,2.40
2022-07-25T20:54:00,pkn,2.40
2022-07-25T20:55:00,pkn,1.20
2022-07-25T20:56:00,pkn,1.20
2022-07-25T20:57:00,pkn,1.20
2022-07-25T20:59:00,pkn,1.20
2022-07-25T21:01:00,pkn,2.40
2022-07-25T21:03:00,pkn,1.20
2022-07-25T21:04:00,pkn,1.20
2022-07-25T21:06:00,pkn,2.40
2022-07-25T21:07:00,pkn,1.20
2022-07-25T21:09:00,pkn,1.20
2022-07-25T21:11:00,pkn,2.40
2022-07-25T21:13:00,pkn,1.20
2022-07-25T21:15:00,pkn,2.40
2022-07-25T21:18:00,pkn,2.40
2022-07-25T21:20:00,pkn,1.20
2022-07-25T21:22:00,pkn,2.40
2022-07-25T21:24:00,pkn,1.20
2022-07-25T21:26:00,pkn,2.40
2022-07-25T21:28:00,pkn,1.20
2022-07-25T21:30:00,pkn,2.40
2022-07-25T21:33:00,pkn,2.40
2022-07-25T21:35:00,pkn,1.20
2022-07-25T21:37:00,pkn,2.40
2022-07-25T21:39:00,pkn,1.20
2022-07-25T21:41:00,pkn,1.20
2022-07-25T21:43:00,pkn,2.40
2022-07-25T21:45:00,pkn,1.20
2022-07-25T21:47:00,pkn,2.40
2022-07-25T21:49:00,pkn,1.20
2022-07-25T21:51:00,pkn,2.40
2022-07-25T21:54:00,pkn,2.40
2022-07-25T21:56:00,pkn,1.20
2022-07-25T21:58:00,pkn,8.40
2022-07-25T22:00:00,pkn,9.60
2022-07-25T22:02:00,pkn,10.80
2022-07-25T22:03:00,pkn,3.60
2022-07-25T22:05:00,pkn,10.80
2022-07-25T22:07:00,pkn,9.60
2022-07-25T22:08:00,pkn,4.80
2022-07-25T22:10:00,pkn,10.80
2022-07-25T22:11:00,pkn,4.80
2022-07-25T22:12:00,pkn,4.80
2022-07-25T22:14:00,pkn,3.60
2022-07-25T22:15:00,pkn,1.20
2022-07-25T22:18:00,pkn,2.40
2022-07-25T22:19:00,pkn,1.20
2022-07-25T22:21:00,pkn,1.20
2022-07-25T22:22:00,pkn,1.20
2022-07-25T22:24:00,pkn,2.40
2022-07-25T22:26:00,pkn,1.20
2022-07-25T22:27:00,pkn,1.20
2022-07-25T22:29:00,pkn,2.40
2022-07-25T22:30:00,pkn,1.20
2022-07-25T22:32:00,pkn,9.60
2022-07-25T22:33:00,pkn,4.80
2022-07-25T22:34:00,pkn,4.80
2022-07-25T22:36:00,pkn,9.60
2022-07-25T22:37:00,pkn,6.00
2022-07-25T22:39:00,pkn,9.60
2022-07-25T22:40:00,pkn,1.20
2022-07-25T22:42:00,pkn,2.40
2022-07-25T22:44:00,pkn,1.20
2022-07-25T22:45:00,pkn,1.20
2022-07-25T22:46:00,pkn,1.20
2022-07-25T22:49:00,pkn,2.40
2022-07-25T22:50:00,pkn,1.20
2022-07-25T22:52:00,pkn,1.20
2022-07-25T22:53:00,pkn,1.20
2022-07-25T22:54:00,pkn,1.20
2022-07-25T22:56:00,pkn,1.20
2022-07-25T22:57:00,pkn,1.20
2022-07-25T22:59:00,pkn,2.40
2022-07-25T23:02:00,pkn,2.40
2022-07-25T23:04:00,pkn,3.60
2022-07-25T23:06:00,pkn,9.60
2022-07-25T23:07:00,pkn,4.80
2022-07-25T23:09:00,pkn,9.60
2022-07-25T23:10:00,pkn,6.00
2022-07-25T23:12:00,pkn,8.40
2022-07-25T23:14:00,pkn,1.20
2022-07-25T23:15:00,pkn,1.20
2022-07-25T23:16:00,pkn,1.20
2022-07-25T23:17:00,pkn,1.20
2022-07-25T23:19:00,pkn,1.20
2022-07-25T23:20:00,pkn,1.20
2022-07-25T23:22:00,pkn,3.60
2022-07-25T23:23:00,pkn,3.60
2022-07-25T23:25:00,pkn,10.80
2022-07-25T23:26:00,pkn,4.80
2022-07-25T23:27:00,pkn,4.80
2022-07-25T23:28:00,pkn,6.00
2022-07-25T23:30:00,pkn,8.40
2022-07-25T23:31:00,pkn,6.00
2022-07-25T23:33:00,pkn,9.60
2022-07-25T23:35:00,pkn,2.40
2022-07-25T23:36:00,pkn,1.20
2022-07-25T23:38:00,pkn,1.20
2022-07-25T23:40:00,pkn,2.40
2022-07-25T23:42:00,pkn,1.20
2022-07-25T23:44:00,pkn,2.40
2022-07-25T23:46:00,pkn,1.20
2022-07-25T23:47:00,pkn,1.20
2022-07-25T23:49:00,pkn,2.40
2022-07-25T23:51:00,pkn,1.20
2022-07-25T23:53:00,pkn,2.40
2022-07-25T23:56:00,pkn,4.80
2022-07-25T23:57:00,pkn,1.20
2022-07-25T23:58:00,pkn,8.40
